Location: Goll?ig?dem
(16.6773°N, 80.7332°E)
Time: 20:05:35
(UTC+00:00)

IRS-1D - Pass Details

Date: 19 May 2025
Orbit: 737 x 811 km, 98.8° (Epoch: 23 June)

Event Time Altitude Azimuth Distance (km) Brightness Sun altitude
Rises 22:35:40 0° 18° (NNE) 3,323 7.5 -20.2°
Reaches altitude 10° 22:38:03 10° 21° (NNE) 2,387 6.7 -19.7°
Maximum altitude 22:43:16 62° 102° (ESE) 899 4.0 -18.6°
Drops below altitude 10° 22:48:25 10° 182° (S) 2,353 5.7 -17.5°
Enters shadow 22:49:05 - 183° (S) 2,610 6.0 -17.4°
